#timestamp,LO_Frequency,Hit 
1501434015.6,286046990.9,N
1501434035.4,286046991.4,N
1501434055.3,286046990.8,N
1501434075.1,286046990.9,N
1501434076.0,286046990.9,N
1501434095.8,286046988.9,N
1501434115.7,286046988.5,N
1501434135.5,286046990.9,N
1501434155.3,286046989.3,N
1501434175.1,286046988.8,N
1501434195.9,286046989.2,N
1501434215.7,286046989.2,N
1501434235.5,286046989.1,N
1501434255.4,286046991.3,N
1501434275.2,286046988.9,N
1501434295.0,286046990.7,N
1501434295.9,286046990.7,N
1501434315.8,286046990.7,N
1501434335.6,286046992.5,N
1501434355.4,286046991.1,N
1501434375.3,286046990.9,N
1501434395.1,286046990.4,N
1501434396.0,286046990.4,N
1501434415.8,286046991.4,N
1501434435.7,286046991.5,N
1501434455.5,286046991.5,N
1501434475.3,286046990.9,N
1501434495.1,286046988.6,N
1501434515.9,286046991.6,N
1501434535.7,286046988.6,N
1501434555.5,286046991.3,N
1501434575.4,286046990.7,N
1501434595.2,286046990.7,N
1501434615.0,286046991.3,N
1501434615.9,286046991.3,N
1501434635.8,286046988.9,N
1501434655.6,286046988.7,N
1501434675.4,286046991.3,N
1501434695.3,286046990.6,N
1501434715.1,286046991.5,N
1501434716.0,286046991.5,N
1501434735.8,286046989.0,N
1501434755.7,286046990.7,N
1501434775.5,286046990.5,N
1501434795.3,286046993.2,N
1501434815.1,286046992.9,N
1501434835.9,286046992.5,N
1501434855.7,286046990.3,N
1501434875.5,286046993.2,N
1501434895.4,286046992.4,N
1501434915.2,286046990.9,N
1501434935.0,286046990.7,N
1501434935.9,286046990.7,N
1501434955.8,286046993.0,N
1501434975.6,286046990.3,N
1501434995.4,286046992.8,N
1501435015.3,286046991.2,N
1501435035.1,286046990.8,N
1501435036.0,286046990.8,N
1501435055.8,286046991.4,N
1501435075.6,286046991.2,N
1501435095.5,286046991.5,N
1501435115.3,286046988.5,N
1501435135.1,286046988.9,N
1501435155.9,286046988.7,N
1501435175.7,286046990.8,N
1501435195.5,286046991.6,N
1501435215.4,286046991.1,N
1501435235.2,286046991.5,N
1501435255.0,286046991.0,N
1501435255.9,286046991.0,N
1501435275.8,286046990.6,N
1501435295.6,286046990.9,N
1501435315.4,286046991.0,N
1501435335.3,286046989.3,N
1501435355.1,286046990.8,N
1501435356.0,286046990.8,N
1501435375.8,286046990.7,N
1501435395.6,286046988.5,N
1501435415.5,286046990.7,N
1501435435.3,286046990.5,N
1501435455.1,286046990.1,N
1501435475.9,286046993.0,N
1501435495.7,286046993.2,N
1501435515.5,286046990.2,N
1501435535.4,286046991.2,N
1501435555.2,286046990.1,N
1501435575.0,286046990.7,N
1501435575.9,286046990.7,N
1501435595.8,286046991.3,N
1501435615.6,286046990.7,N
1501435635.4,286046990.6,N
1501435655.3,286046988.5,N
1501435675.1,286046991.5,N
1501435676.0,286046991.5,N
1501435695.8,286046992.7,N
1501435715.6,286046990.3,N
1501435735.5,286046990.5,N
1501435755.3,286046993.2,N
1501435775.1,286046992.7,N
1501435795.9,286046991.0,N
1501435815.7,286046990.2,N
1501435835.5,286046991.6,N
1501435855.4,286046989.0,N
1501435875.2,286046989.2,N
1501435895.0,286046988.6,N
1501435895.9,286046988.6,N
1501435915.8,286046988.5,N
1501435935.6,286046988.7,N
1501435955.4,286046991.5,N
1501435975.2,286046989.7,N
1501435995.1,286046991.6,N
1501435996.0,286046991.6,N
1501436015.8,286046990.0,N
1501436035.6,286046989.6,N
1501436055.5,286046988.5,Y
1501436075.3,286047001.1,N
1501436095.1,286047001.2,N
1501436115.9,286047001.0,N
1501436135.7,286047001.2,N
1501436155.5,286047000.2,N
1501436175.4,286046999.8,N
1501436195.2,286047000.6,N
1501436215.0,286047000.7,N
1501436215.9,286047000.7,N
1501436235.8,286047000.3,N
1501436255.6,286046999.7,N
1501436275.4,286047002.5,N
1501436295.2,286047002.6,N
1501436315.1,286047000.0,N
1501436316.0,286047000.0,N
1501436335.8,286047000.3,N
1501436355.6,286047002.7,N
1501436375.5,286047002.8,N
1501436395.3,286047000.2,N
1501436415.1,286047002.7,N
1501436435.9,286047000.1,N
1501436455.7,286047000.7,N
1501436475.5,286047001.2,N
1501436495.4,286047002.1,N
1501436515.2,286047003.9,N
1501436535.0,286046999.8,N
1501436535.9,286046999.8,N
1501436555.8,286047002.8,N
1501436575.6,286047001.9,N
1501436595.4,286047002.0,N
1501436615.2,286047002.6,N
1501436635.1,286047002.5,N
1501436636.0,286047002.5,N
1501436655.8,286047000.3,N
1501436675.6,286047002.7,N
1501436695.5,286047000.2,N
1501436715.3,286047000.3,N
1501436735.1,286047000.2,N
1501436755.9,286047002.6,N
1501436775.7,286046999.7,N
1501436795.5,286047002.1,N
1501436815.3,286047000.9,N
1501436835.2,286047002.4,N
1501436855.0,286047000.5,N
1501436855.9,286047000.5,N
1501436875.7,286047000.4,N
1501436895.6,286047000.1,N
1501436915.4,286047002.8,N
1501436935.2,286047000.0,N
1501436955.1,286047000.3,N
1501436956.0,286047000.3,N
1501436975.8,286047000.5,N
1501436995.6,286046999.9,N
1501437015.5,286047000.2,N
1501437035.3,286047000.2,N
1501437055.1,286047000.1,N
1501437075.9,286046998.6,N
1501437095.7,286047000.0,N
1501437115.5,286047000.1,N
1501437135.3,286046999.7,N
1501437155.2,286047000.1,N
1501437175.0,286047000.6,N
1501437175.9,286047000.6,N
1501437195.7,286047002.5,N
1501437215.6,286047002.7,N
1501437235.4,286047000.4,N
1501437255.2,286047002.3,N
1501437275.1,286046999.9,N
1501437276.0,286046999.9,N
1501437295.8,286047002.7,N
1501437315.6,286047002.6,N
1501437335.5,286047001.4,N
1501437355.3,286047001.5,N
1501437375.1,286047003.9,N
1501437395.9,286047002.8,N
1501437415.7,286047001.8,N
1501437435.5,286047001.3,N
1501437455.3,286047002.1,N
1501437475.2,286047001.3,N
1501437495.0,286047002.8,N
1501437495.9,286047002.8,N
1501437515.7,286047002.2,N
1501437535.6,286047002.1,N
1501437555.4,286047001.7,N
1501437575.2,286047001.3,N
1501437595.1,286047001.4,N
1501437596.0,286047001.4,N
